Weather History for Pasco, WA

Change the Weather History Date:

Saturday, October 1, 2011

  Actual Average Record
Temperature  
Mean Temperature 68 °F 58 °F  
Max Temperature 81 °F 73 °F 88 °F (1991)
Min Temperature 54 °F 42 °F 31 °F (2002)
Degree Days  
Heating Degree Days 0 8  
Month to date heating degree days 0 8  
Since 1 July heating degree days 54 119  
Cooling Degree Days 3 0  
Month to date cooling degree days 3 0  
Year to date cooling degree days 632 709  
Growing Degree Days 17 (Base 50)    
Moisture  
Dew Point 47 °F    
Average Humidity 57    
Maximum Humidity 83    
Minimum Humidity 30    
Precipitation  
Precipitation T in 0.02 in 0.39 in (1951)
Month to date precipitation T 0.02  
Year to date precipitation 5.37 5.90  
Snow  
Snow 0.00 in - - ()
Snow Depth 0.00 in    
Sea Level Pressure  
Sea Level Pressure 29.81 in    
Wind  
Wind Speed 6 mph (WSW)    
Max Wind Speed 22 mph    
Max Gust Speed 26 mph    
Visibility 10 miles    
Events      
T = Trace of Precipitation, MM = Missing Value Source: NWS Daily Summary

Daily Weather History Graph

Daily Weather History Graph

Search for Another Location

Airport:

Trip Planner

Search our weather history database for the weather conditions in past years. The results will help you decide how hot, cold, wet, or windy it might be!

Date:

Astronomy

Oct. 01, 2011 Rise Set
Actual Time 6:54 AM PDT 6:36 PM PDT
Civil Twilight 6:24 AM PDT 7:06 PM PDT
Nautical Twilight 5:49 AM PDT 7:41 PM PDT
Astronomical Twilight 5:14 AM PDT 8:16 PM PDT
Moon 12:26 PM PDT (10/1) 9:18 PM PDT (10/1)
Length of Visible Light 12h 41m
Length of Day
11h 41m
Waxing Crescent, 25% of the Moon is Illuminated
Oct 1
Waxing Crescent
Oct 3
First Quarter
Oct 11
Full
Oct 19
Last Quarter
Oct 26
New

Hourly Weather History & Observations

Time (PDT) Temp. Dew Point Humidity Pressure Visibility Wind Dir Wind Speed Gust Speed Precip Events Conditions
12:53 AM 57.9 °F 48.9 °F 72% 29.74 in 10.0 mi NNW 4.6 mph - N/A   Clear
1:53 AM 57.0 °F 50.0 °F 77% 29.71 in 10.0 mi NNW 4.6 mph - N/A   Clear
2:53 AM 61.0 °F 48.9 °F 64% 29.78 in 10.0 mi Calm Calm - N/A   Clear
3:53 AM 60.1 °F 50.0 °F 69% 29.72 in 10.0 mi NNE 4.6 mph - N/A   Partly Cloudy
5:53 AM 54.0 °F 48.9 °F 83% 29.72 in 10.0 mi North 3.5 mph - N/A   Clear
6:53 AM 55.9 °F 48.0 °F 75% 29.75 in 10.0 mi Calm Calm - N/A   Clear
8:53 AM 63.0 °F 48.0 °F 58% 29.78 in 10.0 mi SSE 9.2 mph - N/A   Clear
9:53 AM 64.0 °F 48.9 °F 58% 29.81 in 10.0 mi South 12.7 mph - N/A   Clear
10:53 AM 66.9 °F 48.9 °F 52% 29.81 in 10.0 mi SSW 11.5 mph - N/A   Clear
11:53 AM 72.0 °F 48.9 °F 44% 29.80 in 10.0 mi South 10.4 mph - N/A   Clear
12:53 PM 75.0 °F 48.9 °F 40% 29.79 in 10.0 mi SW 3.5 mph - N/A   Clear
1:53 PM 79.0 °F 48.0 °F 34% 29.78 in 10.0 mi South 10.4 mph - 0.00 in   Clear
2:53 PM 80.1 °F 46.9 °F 31% 29.79 in 10.0 mi SW 16.1 mph 24.2 mph N/A   Clear
3:53 PM 80.1 °F 46.0 °F 30% 29.80 in 10.0 mi SW 5.8 mph - N/A   Clear
4:53 PM 73.9 °F 45.0 °F 35% 29.82 in 10.0 mi West 15.0 mph 25.3 mph N/A   Scattered Clouds
5:53 PM 72.0 °F 44.1 °F 37% 29.84 in 10.0 mi WNW 13.8 mph - N/A   Clear
6:53 PM 70.0 °F 44.1 °F 39% 29.86 in 10.0 mi SW 4.6 mph - N/A   Clear
7:53 PM 68.0 °F 46.0 °F 45% 29.88 in 10.0 mi SSW 6.9 mph - N/A   Clear
8:53 PM 66.0 °F 46.0 °F 48% 29.89 in 10.0 mi SW 6.9 mph - N/A   Clear
9:53 PM 64.9 °F 46.0 °F 50% 29.90 in 10.0 mi WSW 9.2 mph - N/A   Clear
10:53 PM 61.0 °F 46.9 °F 60% 29.91 in 10.0 mi North 4.6 mph - N/A   Mostly Cloudy
11:53 PM 60.1 °F 46.9 °F 62% 29.92 in 10.0 mi Calm Calm - N/A   Mostly Cloudy